Wind_Speed
12 12 13 13 12 12 12 13 15 16 16 16 15 13 12 11 10 10 10 10 10 11 11 11 12 12 12 13 14 15 16 17 18 18 19 19 20 20 20 21 21 21 22
10 10 10 11 11 11 11 12 13 14 14 15 14 14 13 12 11 10 10 10 11 11 11 12 12 12 12 13 14 16 17 19 19 20 21 21 22 22 23 23 24 24 25
8 7 8 8 9 9 9 10 10 11 11 12 12 12 12 12 11 11 10 11 11 11 12 12 13 13 13 14 15 16 17 19 20 21 22 23 24 24 25 25 26 27 27
7 6 7 7 8 8 8 8 8 8 9 9 10 10 11 11 11 11 11 12 12 13 13 13 14 14 15 15 16 17 18 20 21 23 24 25 25 26 27 27 28 29 29
6 6 6 6 7 8 8 7 6 6 6 7 8 8 9 10 10 11 12 12 13 13 14 15 15 16 17 18 19 19 20 21 22 23 24 26 26 27 27 28 29 29 30
7 6 6 6 7 6 6 5 4 4 4 5 6 7 8 8 9 10 11 12 13 14 15 16 16 17 18 19 20 20 21 22 22 23 24 25 26 26 27 27 27 27 28
7 6 7 7 7 6 5 4 4 3 3 4 4 5 6 7 9 10 11 12 13 14 15 16 17 17 18 19 19 20 21 22 23 23 24 25 25 26 26 26 26 26 27
6 7 7 6 6 5 4 4 4 4 4 4 4 5 6 8 9 10 12 13 14 14 15 16 17 17 18 18 19 20 21 23 24 25 25 26 27 27 27 27 28 28 28
6 6 6 5 5 4 4 5 5 5 5 5 6 6 8 9 10 12 13 13 14 15 16 17 18 18 19 20 21 22 23 25 26 27 28 29 29 30 30 30 30 31 30
8 7 6 6 5 5 5 6 6 6 6 7 7 8 9 10 11 12 13 14 15 16 17 18 19 20 21 21 23 24 25 27 28 30 31 31 32 33 33 33 33 33 34
9 7 6 5 6 5 6 6 6 7 8 8 9 10 11 12 12 13 14 15 16 17 18 19 20 21 22 23 24 25 26 28 29 31 31 32 34 35 36 36 36 36 36
10 9 8 7 6 6 6 7 7 8 9 10 11 12 13 14 14 15 16 17 17 18 19 20 21 21 22 22 23 25 26 28 30 31 32 33 34 36 37 38 39 39 39
11 10 10 9 8 8 7 8 8 9 10 11 12 13 14 15 16 17 17 18 18 19 19 19 20 21 22 23 24 26 27 29 31 33 34 35 37 38 39 41 42 42 42
11 11 11 10 10 10 8 8 9 9 10 12 13 14 15 16 17 17 17 17 17 18 19 20 21 22 23 25 27 29 31 32 34 36 37 39 40 42 43 44 45 45 45
12 12 12 12 12 11 10 9 9 9 11 12 13 14 15 15 15 15 16 17 17 18 20 21 22 24 26 28 31 33 35 37 39 40 42 43 44 46 47 47 48 48 48
14 14 14 13 13 12 11 10 10 10 11 12 13 13 14 15 15 16 16 17 18 20 21 22 24 27 29 32 35 37 40 42 44 45 47 48 49 50 51 52 52 52 52
17 16 16 14 14 13 12 11 11 12 12 13 14 15 16 16 17 17 18 19 20 21 23 25 27 30 32 35 37 40 42 45 47 49 52 54 55 55 55 56 56 56 56
20 19 18 17 16 15 14 13 13 13 14 15 17 18 19 20 20 21 21 22 23 25 26 28 30 33 35 38 41 43 46 48 50 53 55 57 59 60 60 60 59 60 60
23 22 21 19 18 18 17 16 16 16 17 19 20 22 23 23 24 25 26 27 28 29 30 32 34 37 40 42 45 47 49 51 53 56 58 60 61 62 63 63 63 62 63
25 25 24 23 22 21 20 19 19 20 21 22 24 25 26 27 28 29 30 31 32 34 35 37 40 42 44 47 49 51 53 55 56 58 60 62 63 63 64 64 63 63 63
29 29 27 26 25 25 24 23 23 24 25 26 27 28 29 31 32 33 34 35 36 38 40 42 44 46 49 51 53 55 56 58 59 60 61 63 63 63 62 61 60 59 58
32 33 32 30 30 29 28 27 27 27 28 29 30 31 32 34 35 36 37 39 40 42 43 45 48 50 53 56 57 58 58 59 61 61 61 60 60 60 58 56 54 53 52
35 35 35 35 35 33 31 31 31 32 33 32 33 34 36 37 38 39 40 42 44 45 47 49 52 54 57 59 60 60 60 60 61 60 59 57 54 53 52 50 49 48 48
37 37 38 38 37 36 34 34 34 35 35 36 38 39 40 41 42 44 45 46 48 50 51 53 55 57 59 61 61 61 61 61 60 58 56 52 49 48 48 47 48 49 49
39 40 40 40 40 38 37 37 38 38 39 40 42 44 46 46 47 49 50 50 51 52 54 56 58 60 61 61 61 61 61 60 58 55 52 50 49 49 49 49 51 52 54
41 41 42 42 41 40 40 40 40 41 42 45 47 49 50 50 51 53 53 53 53 54 56 58 60 60 61 61 61 60 59 57 55 52 51 51 51 51 52 54 55 57 58
Wind_Direction
282 281 285 288 287 282 277 273 271 270 268 264 259 255 254 255 254 252 251 251 251 251 252 253 255 256 256 257 257 257 258 258 259 261 262 264 265 265 265 265 265 265 264
284 282 284 288 290 289 285 278 273 269 265 262 258 256 256 255 254 255 255 255 256 256 256 257 258 258 258 257 258 258 259 260 262 264 266 267 268 268 268 269 269 267 265
297 294 294 295 296 295 292 286 277 269 263 259 257 256 255 254 255 256 258 258 258 259 260 262 263 263 262 262 261 261 261 262 264 266 267 269 271 272 273 273 272 272 269
320 319 315 312 309 306 302 294 283 270 261 256 253 252 252 254 258 260 261 262 262 263 265 266 267 267 267 266 266 266 265 266 267 269 270 272 273 274 275 275 276 275 274
332 333 327 323 319 314 308 298 286 273 259 252 248 248 251 255 260 264 266 266 267 268 270 270 270 271 271 271 271 271 271 271 272 273 275 276 277 278 278 278 278 277 276
325 325 323 320 319 315 309 299 286 272 262 253 249 254 259 264 268 270 272 272 271 271 272 274 274 274 274 274 273 274 274 275 275 276 278 279 280 281 283 282 282 281 279
318 311 305 303 303 300 296 287 275 261 255 253 257 266 269 272 275 278 279 278 277 276 275 274 275 275 276 276 276 277 277 278 279 279 280 281 282 283 283 284 284 284 283
318 304 295 292 291 287 282 274 265 257 255 260 269 275 277 278 279 281 281 281 280 281 280 279 279 280 280 279 279 279 279 280 280 280 281 282 282 282 283 283 283 283 283
333 317 308 303 290 276 275 274 265 258 259 264 270 275 279 280 281 281 282 283 283 283 283 283 283 283 282 281 281 281 281 280 280 280 280 280 281 281 282 283 282 282 281
347 333 318 312 299 284 283 279 275 273 270 272 276 281 284 284 283 284 284 284 284 284 283 283 283 282 282 281 281 280 280 280 280 280 280 280 280 280 280 280 281 280 279
355 352 346 332 316 296 290 288 285 284 283 285 288 289 289 289 290 290 290 289 288 287 286 285 284 283 282 281 281 282 282 282 282 282 282 282 281 280 279 279 278 278 277
355 354 351 346 334 315 309 301 295 291 290 295 298 297 297 298 299 298 296 294 291 290 289 288 286 287 287 285 284 285 285 285 284 284 285 284 283 282 281 280 279 278 276
346 345 344 343 338 330 320 310 300 297 297 299 302 304 306 306 305 303 301 298 296 295 294 293 292 292 293 292 291 291 291 290 289 289 288 286 284 282 281 280 278 277 275
336 334 335 336 336 334 326 313 303 300 300 303 304 307 308 308 306 304 300 298 296 296 297 298 297 297 297 297 297 296 295 293 291 290 289 287 285 283 281 280 279 277 275
328 327 326 325 326 328 325 317 313 307 306 308 307 308 308 308 306 304 301 296 295 296 298 299 300 301 300 300 299 297 295 293 291 289 288 286 284 283 281 280 278 276 274
318 321 321 318 317 319 319 317 315 314 313 311 310 310 310 309 308 305 303 300 298 298 299 300 301 302 302 301 299 298 296 294 291 289 288 286 283 281 280 278 277 275 274
305 311 313 311 309 309 310 309 309 310 309 307 308 309 309 308 306 304 302 301 299 299 300 300 301 302 302 301 300 298 296 293 291 288 286 284 282 280 278 276 275 275 274
294 299 303 304 301 300 300 299 299 302 302 303 304 305 305 304 302 300 300 300 299 298 299 300 302 303 303 302 300 298 295 292 289 286 283 281 279 278 276 275 274 273 273
284 288 293 294 294 292 291 290 292 295 297 298 299 301 301 299 298 296 296 296 296 296 297 298 301 302 302 301 299 297 294 291 288 284 282 280 278 277 275 274 273 272 271
277 280 284 286 286 285 285 285 286 290 293 295 296 297 297 296 295 293 292 292 292 293 294 296 298 300 301 301 300 297 294 291 288 285 281 279 278 276 275 274 273 271 271
273 274 277 279 279 279 279 282 284 287 290 291 293 293 293 294 294 292 291 290 290 292 293 295 297 299 300 301 299 297 294 291 288 285 282 280 278 277 275 274 272 271 271
269 270 273 276 276 276 278 282 286 288 290 291 292 292 292 292 292 292 292 291 291 292 294 296 298 299 299 300 299 297 294 291 289 287 284 281 279 277 276 274 272 271 270
268 270 272 275 277 278 280 284 287 290 292 291 293 293 294 293 292 292 293 293 293 294 296 297 298 299 299 299 298 296 293 291 289 288 286 282 279 277 276 274 273 272 271
269 270 273 276 279 281 285 288 290 292 293 293 295 295 295 294 294 295 295 295 295 296 297 298 298 298 299 298 297 296 293 291 289 287 285 282 279 277 276 275 275 274 273
270 272 275 278 280 282 285 287 290 291 292 294 297 297 295 295 296 297 297 296 297 297 298 297 298 298 298 297 296 295 293 291 289 286 283 281 279 277 276 275 275 275 275
272 274 276 279 281 283 285 288 290 291 293 295 297 297 297 297 298 298 297 297 297 297 297 297 297 298 297 296 295 294 293 291 288 286 283 282 280 279 278 278 277 277 276
Height
5897 5896 5895 5894 5894 5894 5894 5894 5894 5894 5893 5893 5893 5894 5894 5894 5894 5894 5895 5895 5896 5896 5897 5897 5898 5898 5899 5899 5900 5900 5900 5901 5901 5901 5901 5901 5901 5902 5902 5902 5902 5902 5902
5895 5894 5893 5892 5892 5891 5891 5891 5891 5891 5890 5890 5890 5890 5891 5891 5892 5892 5892 5892 5893 5893 5894 5894 5895 5895 5896 5896 5896 5897 5897 5897 5897 5897 5897 5897 5897 5898 5898 5898 5898 5898 5898
5893 5892 5891 5890 5890 5889 5889 5889 5889 5889 5888 5888 5887 5887 5888 5888 5888 5889 5889 5890 5890 5890 5891 5891 5892 5892 5892 5893 5893 5893 5893 5893 5893 5893 5893 5893 5893 5893 5893 5894 5894 5894 5894
5891 5890 5890 5889 5888 5888 5887 5887 5887 5886 5886 5885 5885 5885 5885 5885 5886 5886 5886 5887 5887 5887 5888 5888 5888 5888 5889 5889 5889 5889 5889 5889 5888 5888 5888 5888 5888 5888 5888 5888 5888 5888 5888
5890 5889 5889 5888 5887 5887 5886 5886 5885 5885 5884 5884 5883 5883 5883 5883 5883 5883 5884 5884 5884 5884 5885 5885 5885 5885 5885 5885 5885 5885 5885 5884 5884 5884 5883 5883 5882 5882 5882 5883 5882 5882 5882
5889 5888 5888 5887 5886 5886 5885 5884 5884 5883 5883 5882 5882 5882 5882 5882 5882 5881 5881 5881 5881 5882 5882 5881 5881 5881 5881 5881 5880 5880 5880 5879 5879 5879 5878 5877 5877 5877 5877 5877 5876 5876 5877
5888 5887 5886 5886 5885 5884 5883 5883 5882 5882 5881 5881 5881 5881 5880 5880 5880 5880 5879 5879 5879 5879 5879 5878 5878 5878 5877 5877 5877 5876 5875 5875 5874 5874 5873 5872 5872 5871 5871 5871 5871 5871 5871
5887 5886 5885 5884 5883 5882 5882 5881 5881 5880 5880 5880 5879 5879 5879 5879 5878 5878 5877 5877 5877 5876 5876 5876 5875 5875 5874 5874 5873 5872 5871 5870 5869 5869 5868 5867 5867 5866 5866 5866 5865 5865 5865
5886 5885 5884 5882 5881 5880 5880 5879 5879 5879 5878 5878 5878 5877 5877 5876 5876 5875 5875 5874 5874 5873 5873 5873 5872 5872 5871 5870 5869 5868 5867 5866 5865 5864 5863 5862 5862 5861 5860 5860 5860 5859 5859
5886 5884 5882 5881 5880 5879 5878 5877 5877 5877 5876 5876 5876 5875 5875 5874 5873 5872 5872 5871 5871 5870 5869 5869 5868 5868 5867 5866 5865 5864 5863 5861 5860 5858 5857 5856 5856 5855 5854 5854 5853 5853 5853
5885 5883 5881 5880 5878 5877 5876 5875 5875 5874 5874 5873 5873 5872 5872 5871 5870 5869 5869 5868 5867 5866 5865 5865 5864 5863 5862 5861 5860 5859 5857 5856 5854 5853 5851 5850 5849 5848 5847 5847 5846 5846 5845
5884 5882 5881 5879 5877 5876 5875 5874 5873 5872 5871 5871 5870 5869 5868 5868 5867 5865 5865 5864 5863 5862 5861 5860 5859 5858 5856 5855 5854 5853 5852 5850 5848 5846 5845 5844 5842 5841 5839 5838 5838 5837 5837
5884 5882 5880 5878 5876 5875 5873 5872 5871 5870 5869 5868 5867 5866 5865 5864 5863 5862 5860 5859 5858 5857 5856 5855 5854 5852 5851 5850 5848 5847 5845 5843 5841 5839 5838 5836 5834 5833 5831 5830 5829 5828 5827
5883 5881 5879 5877 5875 5874 5872 5871 5869 5868 5867 5866 5864 5863 5862 5861 5859 5858 5856 5855 5854 5853 5851 5850 5848 5847 5846 5844 5842 5840 5838 5836 5834 5831 5829 5827 5825 5823 5821 5820 5819 5817 5817
5881 5880 5878 5876 5874 5872 5871 5869 5867 5866 5864 5863 5862 5860 5859 5857 5856 5854 5853 5851 5850 5848 5846 5845 5843 5841 5839 5837 5835 5833 5830 5828 5825 5822 5820 5818 5816 5813 5811 5809 5808 5806 5805
5879 5878 5876 5874 5872 5870 5869 5867 5865 5863 5862 5860 5858 5857 5855 5854 5852 5851 5849 5847 5845 5843 5841 5839 5837 5834 5832 5830 5827 5824 5821 5818 5815 5812 5809 5807 5804 5802 5799 5797 5795 5794 5793
5876 5875 5873 5871 5869 5868 5866 5864 5862 5860 5859 5857 5855 5853 5852 5850 5848 5846 5844 5842 5839 5837 5835 5832 5830 5827 5824 5821 5818 5815 5811 5808 5804 5801 5797 5793 5790 5788 5786 5784 5782 5781 5780
5872 5871 5869 5868 5866 5864 5863 5861 5859 5857 5855 5853 5852 5850 5848 5845 5843 5841 5838 5836 5833 5831 5828 5825 5822 5819 5816 5812 5809 5805 5801 5797 5793 5789 5785 5781 5777 5773 5771 5769 5768 5766 5765
5868 5867 5865 5864 5862 5860 5859 5857 5855 5853 5851 5849 5847 5845 5843 5840 5838 5835 5832 5830 5826 5824 5820 5817 5814 5811 5807 5803 5798 5794 5789 5785 5781 5776 5771 5767 5762 5759 5756 5753 5753 5751 5750
5863 5862 5860 5859 5857 5855 5853 5851 5849 5848 5846 5843 5841 5839 5837 5834 5831 5828 5826 5822 5819 5816 5812 5809 5805 5801 5796 5792 5787 5781 5776 5771 5766 5760 5755 5751 5747 5743 5740 5737 5736 5735 5734
5858 5856 5855 5853 5851 5848 5846 5845 5843 5841 5839 5837 5834 5832 5829 5827 5824 5820 5817 5814 5810 5807 5803 5799 5795 5790 5785 5779 5774 5768 5762 5756 5750 5744 5739 5734 5730 5726 5723 5721 5719 5718 5717
5852 5850 5848 5846 5844 5841 5839 5837 5835 5833 5830 5829 5826 5824 5821 5818 5815 5811 5808 5804 5801 5797 5793 5788 5783 5777 5771 5766 5760 5753 5747 5741 5733 5728 5723 5718 5713 5710 5707 5705 5704 5703 5702
5845 5843 5841 5839 5836 5834 5831 5829 5827 5825 5822 5820 5817 5815 5812 5809 5805 5802 5798 5794 5789 5784 5780 5775 5770 5764 5757 5750 5744 5738 5731 5725 5718 5712 5707 5702 5698 5695 5692 5691 5689 5688 5688
5837 5836 5833 5831 5828 5826 5824 5821 5818 5816 5813 5811 5808 5805 5802 5799 5795 5791 5787 5782 5777 5771 5766 5761 5755 5749 5742 5735 5728 5721 5715 5708 5702 5698 5692 5688 5685 5682 5679 5677 5676 5675 5673
5830 5828 5825 5823 5820 5818 5815 5813 5810 5807 5804 5801 5798 5795 5791 5788 5783 5779 5774 5769 5764 5758 5752 5746 5740 5734 5727 5720 5712 5706 5699 5692 5686 5682 5679 5675 5672 5669 5666 5664 5662 5660 5658
5821 5819 5817 5814 5812 5809 5807 5804 5801 5798 5795 5791 5788 5784 5779 5775 5771 5766 5760 5755 5750 5744 5738 5732 5725 5718 5711 5704 5697 5690 5684 5678 5672 5668 5664 5661 5658 5656 5652 5649 5646 5644 5642